Location: Bamobli
(6.6379°N, 10.9396°W)
Time: 02:02:33
(UTC+00:00)

Envisat - Pass Details

Date: 14 March 2021
Orbit: 764 x 766 km, 98.1° (Epoch: 11 April)

Event Time Altitude Azimuth Distance (km) Brightness Sun altitude
Rises 05:01:51 0° 42° (NE) 3,216 6.8 -27.9°
Reaches altitude 10° 05:05:00 10° 63° (ENE) 2,292 6.3 -27.1°
Maximum altitude 05:08:04 16° 101° (E) 1,899 5.9 -26.3°
Drops below altitude 10° 05:11:07 10° 138° (SE) 2,294 6.0 -25.6°
Sets 05:14:16 0° 159° (SSE) 3,221 6.5 -24.8°
